Flag for Germany Weather past 2 weeks in Seevetal, Lower Saxony, Germany

Now
25 °F

Clear.


Feels Like: 25 °F
Forecast: 25 / 30 °F
Wind: 1 mph from North

Location: Hamburg-Fuhlsbuettel

Current Time: Dec 26, 2014 at 7:00:26 AM

Latest Report: Dec 26, 2014 at 6:20 AM


Visibility: 10 mi

Pressure: 30.33 "Hg

Humidity: 100%

Dew point: 25 °F

Location of SeevetalLocation

Historic Weather in Seevetal — Graph

°F

Seevetal temperature yesterday

Maximum temperature yesterday: 45 °F (at 11:50 AM)
Minimum temperature yesterday: 34 °F (at 5:50 PM)
Average temperature yesterday: 39 °F

Past Weeks' High & Low Weather Summary

 TemperatureHumidityPressure
High54 °F (Dec 18, 7:20 PM)100% (Dec 12, 7:20 AM)30.33 "Hg (Dec 12, 7:20 AM)
Low27 °F (Dec 26, 5:20 AM)61% (Dec 25, 11:50 AM)29.18 "Hg (Dec 12, 12:50 PM)
Average43 °F90%29.75 "Hg
* Reported Dec 11 5:20 AM — Dec 26 5:50 AM, Seevetal, Weather by CustomWeather, © 2014

Note: Actual official high and low records may vary slightly from our data, if they occured in-between our weather recording intervals... More about our weather records

Advertising

Seevetal weather history for previous 24 hours

 ConditionsComfort  
Time TempWeatherWind HumidityBarometerVisibility
5:50 AM
Dec 26
27 °FPassing clouds.2 mph100%30.33 "HgN/A
5:20 AM27 °FPassing clouds.2 mph100%30.33 "HgN/A
4:50 AM28 °FPassing clouds.3 mph93%30.33 "HgN/A
3:50 AM30 °FPassing clouds.5 mph93%30.30 "HgN/A
3:20 AM30 °FPassing clouds.5 mph93%30.30 "HgN/A
2:50 AM30 °FPassing clouds.5 mph93%30.30 "HgN/A
2:20 AM30 °FPassing clouds.6 mph93%30.30 "HgN/A
1:50 AM32 °FPassing clouds.6 mph87%30.30 "HgN/A
1:20 AM32 °FPassing clouds.8 mph93%30.30 "HgN/A
12:50 AM32 °FPassing clouds.7 mph93%30.27 "HgN/A
12:20 AM32 °FPassing clouds.6 mph93%30.27 "HgN/A
11:50 PM
Dec 25
34 °FPassing clouds.7 mph87%30.27 "HgN/A
11:20 PM34 °FPassing clouds.9 mph93%30.27 "HgN/A
10:50 PM34 °FPassing clouds.9 mph93%30.24 "HgN/A
10:20 PM34 °FPassing clouds.8 mph93%30.24 "HgN/A
9:50 PM34 °FPassing clouds.7 mph93%30.24 "HgN/A
9:20 PM34 °FPassing clouds.7 mph93%30.21 "HgN/A
8:50 PM34 °FPartly cloudy.8 mph93%30.21 "HgN/A
8:20 PM34 °FPassing clouds.10 mph93%30.21 "HgN/A
7:50 PM34 °FPassing clouds.10 mph93%30.18 "HgN/A
7:20 PM34 °FPassing clouds.9 mph93%30.15 "HgN/A
6:50 PM34 °FLight snow. Passing clouds.12 mph93%30.15 "Hg4 mi
6:20 PM34 °FLight snow. Passing clouds.13 mph93%30.12 "Hg3 mi
5:50 PM34 °FLight snow. Passing clouds.15 mph93%30.09 "Hg3 mi
5:20 PM36 °FLight rain. Passing clouds.17 mph93%30.07 "Hg4 mi
4:50 PM36 °FLight rain. Passing clouds.17 mph93%30.04 "Hg4 mi
4:20 PM37 °FLight rain. Passing clouds.16 mph93%30.01 "Hg6 mi
3:50 PM37 °FLight rain. Partly sunny.18 mph93%29.98 "Hg6 mi
3:20 PM39 °FLight rain. Partly sunny.21 mph87%29.95 "HgN/A
2:50 PM41 °FBroken clouds.17 mph81%29.92 "HgN/A
2:20 PM43 °FBroken clouds.18 mph76%29.92 "HgN/A
1:50 PM41 °FScattered clouds.17 mph87%29.92 "HgN/A
1:20 PM43 °FSprinkles. Broken clouds.21 mph76%29.89 "HgN/A
12:50 PM43 °FSprinkles. Broken clouds.21 mph71%29.89 "HgN/A
12:20 PM45 °FPartly sunny.18 mph61%29.89 "HgN/A
11:50 AM45 °FPartly sunny.21 mph61%29.89 "HgN/A
11:20 AM43 °FPartly sunny.18 mph71%29.89 "HgN/A
10:50 AM41 °FScattered clouds.20 mph87%29.89 "HgN/A
10:20 AM43 °FBroken clouds.13 mph81%29.89 "HgN/A
9:50 AM43 °FSprinkles. Broken clouds.17 mph81%29.86 "HgN/A
9:20 AM43 °FSprinkles. Broken clouds.15 mph87%29.86 "HgN/A
8:50 AM43 °FBroken clouds.18 mph87%29.83 "HgN/A
8:20 AM43 °FSprinkles. Partly cloudy.16 mph87%29.83 "HgN/A
7:50 AM41 °FSprinkles. Passing clouds.17 mph93%29.83 "HgN/A
7:20 AM41 °FSprinkles. Passing clouds.20 mph93%29.83 "HgN/A
Weather by CustomWeather, © 2014

See weather overviewHow to use our weather pages